Home   Weather   Jennersdorf   Past weeks

Flag for Austria Past Weather in Jennersdorf, Burgenland, Austria — Yesterday and Last 2 Weeks

Now
53 °F

Overcast.


Feels Like: 53 °F
Forecast: 33 / 59 °F
Wind: 2 mph from Northeast

Location: Murska Sobota

Current Time: Apr 23, 2017 at 8:26:23 pm

Latest Report: Apr 23, 2017 at 7:00 pm


Visibility: N/A

Pressure: 30.14 "Hg

Humidity: 42%

Dew Point: 30 °F

Location of JennersdorfLocation

Past Weather in Jennersdorf — Graph

°F

Jennersdorf Temperature Yesterday

Maximum temperature yesterday: 64 °F (at 2:00 pm)
Minimum temperature yesterday: 29 °F (at 5:00 am)
Average temperature yesterday: 48 °F

High & Low Weather Summary for the Past Weeks

 TemperatureHumidityPressure
High75 °F (Apr 10, 5:00 pm)97% (Apr 16, 8:00 am)30.47 "Hg (Apr 16, 8:00 am)
Low25 °F (Apr 21, 6:00 am)29% (Apr 21, 6:00 pm)29.82 "Hg (Apr 13, 4:00 pm)
Average49 °F64%30.12 "Hg
* Reported Apr 8 7:00 pm — Apr 23 7:00 pm, Jennersdorf, Weather by CustomWeather, © 2017

Note: Actual official high and low records may vary slightly from our data, if they occured in-between our weather recording intervals... More about our weather records

Advertising

Jennersdorf Weather History for the Previous 24 Hours

Scroll right to see more
 ConditionsComfort  
Time TempWeatherWind HumidityBarometerVisibility
7:00 pm
Sun, Apr 23
53 °FOvercast.2 mph42%30.14 "HgN/A
6:00 pm54 °FOvercast.2 mph36%30.13 "HgN/A
5:00 pm54 °FOvercast.2 mph39%30.11 "HgN/A
4:00 pm54 °FPartly sunny.3 mph36%30.11 "HgN/A
3:00 pm55 °FPartly sunny.2 mph38%30.11 "HgN/A
2:00 pm53 °FPartly sunny.2 mph41%30.13 "HgN/A
1:00 pm52 °FPartly sunny.2 mph50%30.14 "HgN/A
12:00 pm51 °FPartly sunny.2 mph54%30.15 "HgN/A
11:00 am51 °FPartly sunny.2 mph57%30.16 "HgN/A
9:00 am47 °FPartly sunny.2 mph70%30.16 "HgN/A
8:00 am45 °FPartly sunny.2 mph81%30.15 "HgN/A
7:00 am42 °FPartly sunny.1 mph88%30.12 "HgN/A
6:00 am42 °FOvercast.1 mph86%30.11 "HgN/A
5:00 am42 °FOvercast.1 mph77%30.09 "HgN/A
4:00 am43 °FLight rain. Overcast.1 mph80%30.09 "HgN/A
3:00 am43 °FRain. Overcast.2 mph76%30.09 "HgN/A
2:00 am45 °FOvercast.3 mph65%30.08 "HgN/A
1:00 am45 °FOvercast.2 mph70%30.08 "HgN/A
12:00 am44 °FPassing clouds.5 mph75%30.07 "HgN/A
11:00 pm
Sat, Apr 22
45 °FPassing clouds.7 mph74%30.06 "HgN/A
10:00 pm54 °FOvercast.1 mph54%30.02 "HgN/A
9:00 pm54 °FPassing clouds.3 mph53%30.00 "HgN/A
8:00 pm57 °FPassing clouds.1 mph44%29.98 "HgN/A
Weather by CustomWeather, © 2017

See weather overviewHow to use our weather pages